Weather History for KDFW - September, 2012

Change the Weather History Date:

Friday, September 7, 2012

  Actual Average Record
Temperature  
Mean Temperature 92 °F 81 °F  
Max Temperature 104 °F 91 °F 104 °F (2012)
Min Temperature 79 °F 71 °F 56 °F (1918)
Degree Days  
Heating Degree Days 0 0  
Month to date heating degree days 0 0  
Since 1 July heating degree days 0 0  
Cooling Degree Days 27 16  
Month to date cooling degree days 177 119  
Year to date cooling degree days 2837 2301  
Growing Degree Days 42 (Base 50)    
Moisture  
Dew Point 62 °F    
Average Humidity 44    
Maximum Humidity 62    
Minimum Humidity 25    
Precipitation  
Precipitation 0.00 in 0.09 in 1.44 in (1991)
Month to date precipitation 0.00 0.66  
Year to date precipitation 26.49 24.77  
Sea Level Pressure  
Sea Level Pressure 29.80 in    
Wind  
Wind Speed 11 mph (SSW)    
Max Wind Speed 33 mph    
Max Gust Speed 40 mph    
Visibility 10 miles    
Events      
T = Trace of Precipitation, MM = Missing Value Source: NWS Daily Summary

Daily Weather History Graph

Daily Weather History Graph

Search for Another Location

Airport or City:

Trip Planner

Search our weather history database for the weather conditions in past years. The results will help you decide how hot, cold, wet, or windy it might be!

Date:

Astronomy

Sep. 07, 2012 Rise Set
Actual Time 7:06 AM CDT 7:44 PM CDT
Civil Twilight 6:41 AM CDT 8:09 PM CDT
Nautical Twilight 6:12 AM CDT 8:38 PM CDT
Astronomical Twilight 5:42 AM CDT 9:08 PM CDT
Moon No Moon Rise 1:37 PM CDT (9/7)
Length of Visible Light 13h 27m
Length of Day
12h 37m
Waning Gibbous, 58% of the Moon is Illuminated
Sep 7
Waning Gibbous
Sep 8
Last Quarter
Sep 15
New
Sep 22
First Quarter
Sep 29
Full

Hourly Weather History & Observations

Time (CDT) Temp. Heat Index Dew Point Humidity Pressure Visibility Wind Dir Wind Speed Gust Speed Precip Events Conditions
12:53 AM 84.9 °F 85.0 °F 61.0 °F 44% 29.83 in 10.0 mi SSW 9.2 mph - N/A   Clear
1:53 AM 84.0 °F 84.4 °F 61.0 °F 46% 29.83 in 10.0 mi SSW 9.2 mph - N/A   Partly Cloudy
2:53 AM 86.0 °F 86.1 °F 61.0 °F 43% 29.82 in 10.0 mi South 12.7 mph - N/A   Clear
3:53 AM 84.9 °F 85.9 °F 63.0 °F 48% 29.81 in 10.0 mi SSW 11.5 mph - N/A   Clear
4:53 AM 82.0 °F 83.1 °F 63.0 °F 52% 29.81 in 10.0 mi South 9.2 mph - N/A   Clear
5:53 AM 81.0 °F 82.5 °F 64.0 °F 56% 29.82 in 10.0 mi SSW 9.2 mph - N/A   Clear
6:53 AM 79.0 °F - 64.0 °F 60% 29.83 in 10.0 mi SSW 8.1 mph - N/A   Scattered Clouds
7:53 AM 81.0 °F 82.7 °F 64.9 °F 58% 29.83 in 10.0 mi SSW 9.2 mph - N/A   Scattered Clouds
8:53 AM 84.9 °F 86.6 °F 64.9 °F 51% 29.85 in 10.0 mi SW 10.4 mph - N/A   Scattered Clouds
9:53 AM 89.1 °F 91.3 °F 66.0 °F 46% 29.85 in 10.0 mi SW 9.2 mph - N/A   Partly Cloudy
10:53 AM 93.0 °F 95.0 °F 64.9 °F 39% 29.86 in 10.0 mi SSW 8.1 mph - N/A   Partly Cloudy
11:53 AM 97.0 °F 99.9 °F 64.9 °F 35% 29.84 in 10.0 mi SSW 6.9 mph - N/A   Partly Cloudy
12:53 PM 100.0 °F 101.8 °F 63.0 °F 29% 29.82 in 10.0 mi South 9.2 mph - N/A   Partly Cloudy
1:53 PM 102.0 °F 102.2 °F 59.0 °F 24% 29.80 in 10.0 mi SSW 12.7 mph 24.2 mph N/A   Partly Cloudy
2:53 PM 102.0 °F 102.7 °F 60.1 °F 25% 29.77 in 10.0 mi SW 6.9 mph - N/A   Partly Cloudy
3:53 PM 102.9 °F 103.0 °F 59.0 °F 23% 29.75 in 10.0 mi Variable 3.5 mph - N/A   Partly Cloudy
4:53 PM 102.9 °F 103.6 °F 60.1 °F 24% 29.73 in 10.0 mi South 9.2 mph - N/A   Partly Cloudy
5:53 PM 102.9 °F 103.6 °F 60.1 °F 24% 29.72 in 10.0 mi SSE 10.4 mph - N/A   Scattered Clouds
6:53 PM 100.0 °F 100.2 °F 59.0 °F 26% 29.71 in 10.0 mi South 9.2 mph - N/A   Scattered Clouds
7:53 PM 98.1 °F 98.1 °F 60.1 °F 28% 29.71 in 10.0 mi South 11.5 mph - N/A   Scattered Clouds
8:53 PM 95.0 °F 94.0 °F 57.9 °F 29% 29.72 in 10.0 mi South 10.4 mph - N/A   Partly Cloudy
9:53 PM 91.9 °F 91.2 °F 59.0 °F 33% 29.73 in 10.0 mi South 8.1 mph - N/A   Mostly Cloudy
10:06 PM 93.2 °F 93.3 °F 60.8 °F 34% 29.82 in 10.0 mi North 25.3 mph 31.1 mph N/A   Mostly Cloudy
10:53 PM 82.9 °F 84.0 °F 63.0 °F 51% 29.83 in 10.0 mi North 23.0 mph 36.8 mph N/A   Mostly Cloudy
11:53 PM 81.0 °F 81.7 °F 61.0 °F 50% 29.87 in 10.0 mi NNE 16.1 mph 33.4 mph N/A   Mostly Cloudy